This is the latest recevied weather packets stored in our database for station/object NO3U. If no packets are shown the sender has not sent any weather packets the latest 10 day(s).
| Time | Temp. | Humidity | Pressure | Rain* | Wind** | Luminosity | Snow |
|---|---|---|---|---|---|---|---|
| 1777677382 | 6.11° C | 99% | 1013.1 hPa | 1.27 mm | - | 11 W/m² | - |
| 1777677080 | 6.11° C | 99% | 1013.1 hPa | 0 mm | - | 8 W/m² | - |
| 1777676778 | 6.11° C | 99% | 1013.3 hPa | 1.78 mm | - | 9 W/m² | - |
| 1777676476 | 6.11° C | 99% | 1013.1 hPa | 4.83 mm | - | 13 W/m² | - |
| 1777676174 | 6.11° C | 99% | 1013.1 hPa | 4.83 mm | - | 14 W/m² | - |
| 1777675870 | 6.11° C | 99% | 1013 hPa | 4.83 mm | - | 14 W/m² | - |
| 1777675567 | 6.11° C | 99% | 1012.9 hPa | 6.1 mm | - | 13 W/m² | - |
| 1777675264 | 6.11° C | 99% | 1012.9 hPa | 6.1 mm | - | 14 W/m² | - |
| 1777674960 | 6.11° C | 99% | 1012.9 hPa | 3.05 mm | - | 13 W/m² | - |
| 1777674657 | 6.67° C | 99% | 1012.7 hPa | 3.05 mm | - | 9 W/m² | - |
| 1777674374 | 7.22° C | 99% | 1012.4 hPa | 6.1 mm | - | 9 W/m² | - |
| 1777674051 | 7.78° C | 99% | 1012.4 hPa | 1.78 mm | - | 4 W/m² | - |
| 1777673747 | 7.78° C | 99% | 1012.2 hPa | 0 mm | - | 5 W/m² | - |
| 1777673444 | 7.78° C | 99% | 1012.1 hPa | 0 mm | - | 9 W/m² | - |
| 1777673142 | 7.78° C | 99% | 1012.2 hPa | 1.78 mm | - | 9 W/m² | - |
| 1777672838 | 7.78° C | 99% | 1012.1 hPa | 1.78 mm | - | 25 W/m² | - |
| 1777672534 | 7.78° C | 99% | 1012 hPa | 0 mm | - | 43 W/m² | - |
| 1777672230 | 7.78° C | 99% | 1012 hPa | 0 mm | - | 29 W/m² | - |
| 1777671926 | 7.78° C | 99% | 1012.2 hPa | 0 mm | - | 23 W/m² | - |
| 1777671622 | 7.78° C | 99% | 1012.2 hPa | 0 mm | - | 63 W/m² | - |
| 1777671319 | 7.78° C | 99% | 1012.3 hPa | 0 mm | - | 32 W/m² | - |
| 1777671015 | 7.78° C | 99% | 1012 hPa | 0 mm | - | 32 W/m² | - |
| 1777670711 | 7.78° C | 99% | 1012.1 hPa | 0 mm | - | 58 W/m² | - |
| 1777670409 | 7.78° C | 99% | 1012.1 hPa | 0 mm | - | 96 W/m² | - |
| 1777670105 | 7.78° C | 99% | 1012.3 hPa | 0 mm | - | 53 W/m² | - |
* Rain latest hour (hover to see other rain measurements)
** Current wind speed in m/s (hover to see current wind gust speed)